Weather History for Oklahoma City, OK

Change the Weather History Date:

Thursday, February 21, 2013

  Actual Average Record
Temperature  
Mean Temperature 31 °F 45 °F  
Max Temperature 37 °F 56 °F 82 °F (1996)
Min Temperature 24 °F 34 °F 9 °F (1939)
Degree Days  
Heating Degree Days 34 20  
Month to date heating degree days 431 467  
Since 1 July heating degree days 2383 2620  
Moisture  
Dew Point 30 °F    
Average Humidity 87    
Maximum Humidity 100    
Minimum Humidity 74    
Precipitation  
Precipitation 0.74 in 0.05 in 1.63 in (1971)
Month to date precipitation 1.92 1.13  
Year to date precipitation 3.06 2.52  
Snow  
Snow 0.60 in 0.10 in 4.70 in (1971)
Month to date snowfall 4.7 1.2  
Since 1 July snowfall 6.1 6.5  
Snow Depth -    
Sea Level Pressure  
Sea Level Pressure 29.78 in    
Wind  
Wind Speed 12 mph (North)    
Max Wind Speed 25 mph    
Max Gust Speed 32 mph    
Visibility 7 miles    
Events Rain , Thunderstorm    
T = Trace of Precipitation, MM = Missing Value Source: NWS Daily Summary

Daily Weather History Graph

Daily Weather History Graph

Search for Another Location

Airport:

Trip Planner

Search our weather history database for the weather conditions in past years. The results will help you decide how hot, cold, wet, or windy it might be!

Date:

Astronomy

Feb. 21, 2013 Rise Set
Actual Time 7:09 AM CST 6:18 PM CST
Civil Twilight 6:43 AM CST 6:44 PM CST
Nautical Twilight 6:14 AM CST 7:14 PM CST
Astronomical Twilight 5:44 AM CST 7:43 PM CST
Moon 2:40 PM CST 4:09 AM CST
Length of Visible Light 12h 00m
Length of Day
11h 09m
Waxing Gibbous, 84% of the Moon is Illuminated
Feb 21
Waxing Gibbous
Feb 25
Full
Mar 4
Last Quarter
Mar 11
New
Mar 19
First Quarter

Hourly Weather History & Observations

Time (CST) Temp. Windchill Dew Point Humidity Pressure Visibility Wind Dir Wind Speed Gust Speed Precip Events Conditions
12:52 AM 34.0 °F 22.4 °F 30.9 °F 89% 29.82 in 10.0 mi East 20.7 mph 26.5 mph 0.00 in   Overcast
1:45 AM 33.8 °F 21.3 °F 30.2 °F 87% 29.77 in 10.0 mi ESE 24.2 mph 32.2 mph 0.06 in Thunderstorm Thunderstorm
1:52 AM 34.0 °F 23.8 °F 30.0 °F 85% 29.82 in 10.0 mi ESE 16.1 mph 32.2 mph 0.06 in Rain , Thunderstorm Light Thunderstorms and Rain
2:18 AM 33.8 °F 23.2 °F 30.2 °F 87% 29.74 in 6.0 mi East 17.3 mph - 0.12 in Rain Light Rain
2:52 AM 33.1 °F 22.2 °F 30.0 °F 89% 29.75 in 10.0 mi ESE 17.3 mph 27.6 mph 0.12 in Rain Light Rain
3:35 AM 33.8 °F 23.9 °F 30.2 °F 87% 29.68 in 10.0 mi East 15.0 mph - 0.00 in   Overcast
3:52 AM 33.1 °F 23.0 °F 30.0 °F 89% 29.70 in 10.0 mi ESE 15.0 mph 24.2 mph 0.00 in   Overcast
4:38 AM 33.8 °F - 30.2 °F 87% 29.75 in 4.0 mi Calm Calm - 0.00 in Rain , Thunderstorm Light Thunderstorms and Rain
4:52 AM 33.1 °F 27.7 °F 30.9 °F 92% 29.76 in 2.5 mi North 5.8 mph - 0.06 in Rain , Thunderstorm Thunderstorms and Ice Pellets
5:03 AM 33.8 °F 26.4 °F 30.2 °F 87% 29.75 in 1.8 mi NNW 9.2 mph - 0.05 in Rain , Thunderstorm Thunderstorms and Ice Pellets
5:13 AM 33.8 °F 27.0 °F 30.2 °F 87% 29.74 in 1.2 mi North 8.1 mph - 0.06 in Rain , Thunderstorm Light Freezing Rain
5:25 AM 33.8 °F 26.4 °F 30.2 °F 87% 29.72 in 0.8 mi NNE 9.2 mph - 0.16 in Rain , Thunderstorm Light Freezing Rain
5:31 AM 33.8 °F 25.3 °F 30.2 °F 87% 29.72 in 1.0 mi North 11.5 mph - 0.20 in Rain , Thunderstorm Light Freezing Rain
5:52 AM 33.1 °F 25.5 °F 30.9 °F 92% 29.75 in 1.5 mi NE 9.2 mph - 0.36 in Rain , Thunderstorm Light Freezing Rain
5:59 AM 33.8 °F 27.0 °F 30.2 °F 87% 29.74 in 1.8 mi NE 8.1 mph - 0.01 in Rain , Thunderstorm Light Thunderstorms and Ice Pellets
6:03 AM 33.8 °F 26.4 °F 30.2 °F 87% 29.74 in 2.0 mi NNE 9.2 mph - 0.01 in Rain , Thunderstorm Light Thunderstorms and Ice Pellets
6:18 AM 33.8 °F 27.0 °F 30.2 °F 87% 29.75 in 2.0 mi NNE 8.1 mph - 0.06 in Rain , Thunderstorm Light Freezing Rain
6:23 AM 33.8 °F 27.0 °F 30.2 °F 87% 29.75 in 3.0 mi NNE 8.1 mph - 0.06 in Rain , Thunderstorm Light Freezing Rain
6:31 AM 33.8 °F 27.7 °F 30.2 °F 87% 29.76 in 3.0 mi NNE 6.9 mph - 0.08 in Rain , Thunderstorm Light Freezing Rain
6:40 AM 33.8 °F 26.4 °F 30.2 °F 87% 29.74 in 3.0 mi NNE 9.2 mph - 0.10 in Rain Light Freezing Rain
6:52 AM 33.8 °F 27.0 °F 30.2 °F 87% 29.76 in 4.0 mi NE 8.1 mph - N/A Rain Light Freezing Rain
7:43 AM 32.0 °F 23.0 °F 30.2 °F 93% 29.71 in 8.0 mi ENE 11.5 mph - 0.02 in Rain Light Freezing Rain
7:52 AM 32.0 °F 23.0 °F 30.0 °F 92% 29.73 in 8.0 mi ENE 11.5 mph - 0.02 in Rain Light Freezing Rain
8:05 AM 32.0 °F 23.6 °F 30.2 °F 93% 29.72 in 9.0 mi ENE 10.4 mph - 0.01 in   Overcast
8:52 AM 33.1 °F 23.0 °F 30.9 °F 92% 29.72 in 10.0 mi East 15.0 mph - 0.01 in   Overcast
9:52 AM 33.1 °F 23.9 °F 32.0 °F 96% 29.71 in 10.0 mi East 12.7 mph - N/A   Overcast
10:52 AM 34.0 °F 25.5 °F 32.0 °F 92% 29.70 in 10.0 mi ESE 11.5 mph - N/A   Overcast
11:52 AM 35.1 °F 30.1 °F 35.1 °F 100% 29.70 in 10.0 mi SSE 5.8 mph - N/A   Overcast
12:52 PM 36.0 °F 33.3 °F 36.0 °F 100% 29.70 in 10.0 mi SW 3.5 mph - N/A   Overcast
1:52 PM 37.0 °F 34.5 °F 37.0 °F 100% 29.69 in 10.0 mi WNW 3.5 mph - N/A   Overcast
2:52 PM 37.0 °F 31.0 °F 36.0 °F 96% 29.70 in 6.0 mi NW 8.1 mph - N/A   Overcast
3:21 PM 35.6 °F 27.5 °F 35.6 °F 100% 29.70 in 0.5 mi NW 11.5 mph - N/A   Overcast
3:30 PM 35.6 °F 28.0 °F 35.6 °F 100% 29.71 in 0.5 mi NW 10.4 mph - N/A   Overcast
3:52 PM 35.1 °F 27.4 °F 35.1 °F 100% 29.75 in 0.5 mi WNW 10.4 mph - 0.00 in   Light Drizzle
4:04 PM 35.6 °F 27.5 °F 35.6 °F 100% 29.73 in 2.0 mi WNW 11.5 mph - 0.00 in   Light Drizzle
4:11 PM 35.6 °F 28.0 °F 35.6 °F 100% 29.73 in 3.0 mi WNW 10.4 mph - 0.00 in   Light Drizzle
4:52 PM 35.1 °F 26.4 °F 35.1 °F 100% 29.77 in 6.0 mi WNW 12.7 mph - 0.00 in   Light Drizzle
5:52 PM 36.0 °F 28.5 °F 35.1 °F 97% 29.80 in 6.0 mi WNW 10.4 mph - 0.00 in   Mostly Cloudy
6:00 PM 35.6 °F 27.1 °F 35.6 °F 100% 29.78 in 10.0 mi WNW 12.7 mph - N/A   Mostly Cloudy
6:37 PM 33.8 °F 22.8 °F 33.8 °F 100% 29.81 in 10.0 mi NW 18.4 mph 25.3 mph N/A   Overcast
6:45 PM 33.8 °F 22.2 °F 32.0 °F 93% 29.82 in 10.0 mi NW 20.7 mph - N/A   Overcast
6:52 PM 33.1 °F 22.2 °F 30.9 °F 92% 29.86 in 10.0 mi NW 17.3 mph - N/A   Overcast
7:52 PM 32.0 °F 20.8 °F 28.9 °F 88% 29.89 in 10.0 mi NW 17.3 mph - N/A   Overcast
8:10 PM 32.0 °F 21.2 °F 26.6 °F 80% 29.88 in 10.0 mi NW 16.1 mph - N/A   Overcast
8:27 PM 30.2 °F 18.1 °F 26.6 °F 86% 29.88 in 10.0 mi NW 18.4 mph - N/A   Overcast
8:52 PM 28.9 °F 15.8 °F 24.1 °F 82% 29.92 in 10.0 mi NW 20.7 mph - N/A   Overcast
9:06 PM 28.4 °F 14.7 °F 23.0 °F 80% 29.90 in 10.0 mi NW 21.9 mph - N/A   Mostly Cloudy
9:38 PM 26.6 °F 13.4 °F 19.4 °F 74% 29.94 in 10.0 mi NW 18.4 mph 24.2 mph N/A   Partly Cloudy
9:52 PM 26.1 °F 11.6 °F 19.0 °F 75% 29.98 in 10.0 mi NW 21.9 mph - N/A   Clear
10:52 PM 25.0 °F 12.6 °F 17.1 °F 72% 30.01 in 10.0 mi NW 15.0 mph - N/A   Clear
11:52 PM 24.1 °F 12.0 °F 16.0 °F 71% 30.02 in 10.0 mi NW 13.8 mph - N/A   Clear